Location: Hains Lake
(37.8540°N, 99.8578°W)
Time: 18:59:28
(UTC+00:00)

Transit 2A - Pass Details

Date: 21 April 2021
Orbit: 602 x 957 km, 66.7° (Epoch: 13 May)

Event Time Altitude Azimuth Distance (km) Brightness Sun altitude
Rises 20:58:45 0° 350° (N) 2,874 8.9 49.5°
Reaches altitude 10° 21:01:58 10° 15° (NNE) 1,997 8.0 48.9°
Maximum altitude 21:04:26 14° 49° (NE) 1,750 7.6 48.5°
Drops below altitude 10° 21:06:58 10° 82° (E) 2,066 8.0 48.1°
Sets 21:10:22 0° 107° (ESE) 3,045 8.8 47.5°
